[[{"header":{"parameterUnit":"m.s-1","parameterCategory":1,"la1":30.2992,"la2":30.254,"lo1":-89.0895,"lo2":-89.0443,"dy":0.0025,"dx":0.0025,"nx":19,"ny":19,"refTime":"2026-03-17T21:00:00:Z","depth":0,"parameterNumber":2,"parameterNumberName":"U-component_of_WINDS"},"data":[0,0,0,-3.4673,-3.4676,-3.4822,-3.4823,-3.501,-3.5012,0,0,0,0,0,0,0,0,0,0,0,-3.4633,-3.4635,-3.4673,-3.4677,-3.4822,-3.4823,-3.501,-3.5012,0,0,0,0,0,0,0,0,0,0,0,-3.4633,-3.4634,-3.4636,-3.4677,-3.4822,-3.4823,-3.501,-3.4899,0,0,0,0,0,0,0,0,0,0,-3.4757,-3.4724,-3.4634,-3.4636,-3.4678,-3.4822,-3.4823,-3.4893,-3.4906,-3.4946,0,-3.4985,0,-3.5002,-3.5025,-3.5026,0,0,0,-3.4674,-3.4714,-3.475,-3.4637,-3.4679,-3.4822,-3.4756,-3.49,-3.4914,-3.4962,-3.4987,-3.4994,-3.5005,-3.5026,-3.5027,-3.5272,-3.5273,0,0,-3.4665,-3.4661,-3.4741,-3.4759,-3.474,-3.4751,-3.476,-3.4909,-3.4935,-3.4988,-3.4998,-3.5008,-3.5028,-3.5029,-3.5271,-3.5272,0,0,0,-3.4644,-3.4656,-3.4688,-3.4752,-3.4778,-3.4755,-3.4766,-3.4928,-3.4939,-3.5,-3.501,-3.5029,-3.5031,-3.527,-3.5272,-3.533,0,0,0,-3.4639,-3.4643,-3.4685,-3.4684,-3.4775,-3.4856,-3.4782,-3.4929,-3.4946,-3.5009,-3.5029,-3.5033,-3.5268,-3.5271,-3.5325,-3.5358,0,0,0,-3.4623,-3.4641,-3.4664,-3.4683,-3.4746,-3.4853,-3.4873,-3.4933,-3.4952,-3.5026,-3.5033,-3.5267,-3.527,-3.5321,-3.5351,-3.5419,0,0,0,-3.4603,-3.4715,-3.4665,-3.4792,-3.4745,-3.4889,-3.4872,-3.498,-3.505,-3.503,-3.5268,-3.5271,-3.532,-3.5347,-3.5415,-3.5474,-3.55,0,0,-3.4741,-3.4731,-3.4807,-3.4766,-3.4918,-3.4867,-3.5028,-3.5096,-3.5107,-3.5216,-3.5222,-3.5327,-3.535,-3.5418,-3.5645,-3.5664,0,0,0,-3.4849,-3.4902,-3.4944,-3.5011,-3.5066,-3.5115,-3.516,-3.5184,-3.5277,-3.5163,-3.5371,-3.5385,-3.5425,-3.5453,-3.547,-3.5503,-3.5285,-3.5285,-3.5284,-3.5037,-3.5045,-3.5169,-3.5193,-3.5258,-3.5302,-3.5354,-3.5394,-3.5384,-3.5432,-3.5464,-3.5601,-3.5635,-3.5647,-3.5682,-3.5498,-3.5498,-3.5499,-3.5499,-3.5238,-3.5315,-3.5296,-3.541,-3.5416,-3.551,-3.5555,-3.5544,-3.5631,-3.5578,-3.5614,-3.5554,-3.5669,-3.5699,-3.5503,-3.5502,-3.5502,-3.5501,-3.5501,-3.5362,-3.5399,-3.5428,-3.5523,-3.5596,-3.5616,-3.57,-3.5703,-3.5706,-3.5741,-3.5773,-3.5772,-3.5769,-3.5756,-3.5757,-3.5757,-3.5758,-3.5758,-3.5758,-3.5477,-3.5507,-3.5579,-3.5645,-3.5686,-3.5742,-3.5785,-3.5825,-3.587,-3.5865,-3.5866,-3.5848,-3.568,-3.5636,-3.5766,-3.5764,-3.5763,-3.5763,-3.5762,-3.5676,-3.5631,-3.5741,-3.5783,-3.5858,-3.5928,-3.593,-3.6012,-3.6046,-3.6086,-3.6061,-3.5937,-3.5926,-3.5913,-3.5877,-3.6061,-3.6061,-3.6061,-3.6061,-3.5778,-3.5773,-3.5884,-3.595,-3.6015,-3.6028,-3.6148,-3.6181,-3.6208,-3.6229,-3.6203,-3.6156,-3.6142,-3.6139,-3.6121,-3.6087,-3.632,-3.6321,-3.6321,-3.5899,-3.59,-3.6003,-3.603,-3.6088,-3.6138,-3.625,-3.6324,-3.6346,-3.6331,-3.6244,-3.6233,-3.6157,-3.6132,-3.6115,-3.6087,-3.6025,0,0]},{"header":{"parameterUnit":"m.s-1","parameterCategory":1,"la1":30.2992,"la2":30.254,"lo1":-89.0895,"lo2":-89.0443,"dy":0.0025,"dx":0.0025,"nx":19,"ny":19,"refTime":"2026-03-17T21:00:00:Z","depth":0,"parameterNumber":3,"parameterNumberName":"V-component_of_WINDS"},"data":[0,0,0,-2.4878,-2.488,-2.4977,-2.4977,-2.51,-2.5101,0,0,0,0,0,0,0,0,0,0,0,-2.4849,-2.485,-2.4878,-2.488,-2.4977,-2.4977,-2.5099,-2.5101,0,0,0,0,0,0,0,0,0,0,0,-2.4848,-2.4849,-2.485,-2.488,-2.4977,-2.4977,-2.5099,-2.5027,0,0,0,0,0,0,0,0,0,0,-2.4933,-2.4906,-2.4849,-2.485,-2.4881,-2.4977,-2.4977,-2.5023,-2.5031,-2.5055,0,-2.5077,0,-2.5091,-2.5109,-2.5109,0,0,0,-2.488,-2.4899,-2.4925,-2.4851,-2.4882,-2.4976,-2.4933,-2.5028,-2.5037,-2.5066,-2.5079,-2.5083,-2.5093,-2.511,-2.511,-2.5248,-2.5249,0,0,-2.4875,-2.4866,-2.4919,-2.4931,-2.4917,-2.493,-2.4936,-2.5033,-2.5046,-2.5079,-2.5086,-2.5095,-2.511,-2.5111,-2.5248,-2.5248,0,0,0,-2.4859,-2.4862,-2.4886,-2.4926,-2.4944,-2.4933,-2.494,-2.5042,-2.5051,-2.5088,-2.5096,-2.5111,-2.5113,-2.5247,-2.5248,-2.5269,0,0,0,-2.4856,-2.4853,-2.4884,-2.4879,-2.4942,-2.4994,-2.4947,-2.5044,-2.5055,-2.5096,-2.5111,-2.5114,-2.5246,-2.5247,-2.5267,-2.528,0,0,0,-2.4843,-2.4851,-2.4865,-2.4879,-2.492,-2.4993,-2.5007,-2.5047,-2.5061,-2.5109,-2.5114,-2.5246,-2.5247,-2.5265,-2.5277,-2.5312,0,0,0,-2.4825,-2.4884,-2.4866,-2.4934,-2.4919,-2.5005,-2.5007,-2.5072,-2.5116,-2.5112,-2.5246,-2.5248,-2.5264,-2.5275,-2.531,-2.5338,-2.535,0,0,-2.4894,-2.4892,-2.4933,-2.4919,-2.5006,-2.4991,-2.5082,-2.5131,-2.5145,-2.5213,-2.5216,-2.5267,-2.5277,-2.5311,-2.5421,-2.543,0,0,0,-2.4951,-2.498,-2.5005,-2.5047,-2.5086,-2.512,-2.5157,-2.5175,-2.5233,-2.5178,-2.5291,-2.5297,-2.5317,-2.5331,-2.5339,-2.5357,-2.5254,-2.5254,-2.5254,-2.5034,-2.5047,-2.5115,-2.514,-2.5181,-2.5217,-2.5251,-2.5282,-2.5285,-2.5311,-2.533,-2.5395,-2.5411,-2.5417,-2.5435,-2.5348,-2.5348,-2.5349,-2.5349,-2.5133,-2.5176,-2.5177,-2.5243,-2.5257,-2.5313,-2.5351,-2.535,-2.5404,-2.5382,-2.5401,-2.5374,-2.5427,-2.5443,-2.535,-2.535,-2.535,-2.535,-2.5349,-2.5187,-2.521,-2.5231,-2.5292,-2.5337,-2.5361,-2.5411,-2.5423,-2.5434,-2.5453,-2.5473,-2.5473,-2.5473,-2.5462,-2.5462,-2.5463,-2.5463,-2.5463,-2.5463,-2.5234,-2.5257,-2.5299,-2.5344,-2.5372,-2.541,-2.5447,-2.5474,-2.5507,-2.5512,-2.5512,-2.551,-2.543,-2.5408,-2.5467,-2.5466,-2.5466,-2.5465,-2.5465,-2.5326,-2.5307,-2.5371,-2.5398,-2.5452,-2.5496,-2.551,-2.5564,-2.5589,-2.5613,-2.5608,-2.5548,-2.5546,-2.554,-2.5522,-2.5606,-2.5606,-2.5606,-2.5606,-2.537,-2.5371,-2.5438,-2.5481,-2.5524,-2.5543,-2.5614,-2.5643,-2.5671,-2.5687,-2.5677,-2.5654,-2.5648,-2.565,-2.5642,-2.5625,-2.5734,-2.5734,-2.5734,-2.5427,-2.5432,-2.549,-2.5516,-2.5559,-2.5596,-2.5662,-2.5711,-2.5739,-2.5739,-2.5699,-2.5693,-2.5658,-2.5646,-2.5644,-2.563,-2.56,0,0]}]]